Regional Weather Roundup
Issued by NWS

Home | Current Version | Previous Version | Graphics & Text | Print | Product List | Glossary On
Versions: 1 2 3 4 5 6 7 8 9 10 11 12 13 14 15 16 17 18 19 20 21 22 23 24 25 26 27 28 29 30 31 32 33 34 35 36 37 38 39 40 41 42 43 44 45 46 47 48 49 50
000
ASUS43 KOAX 110902
RWRNE

WEATHER ROUNDUP FOR NEBRASKA
NATIONAL WEATHER SERVICE OMAHA NE
300 AM CST SUN DEC 11 2016

NOTES: SATELLITE DATA IS BEING USED TO AUGMENT CLOUD COVER ABOVE
       12000 FEET.
       "FAIR" INDICATES FEW OR NO CLOUDS BELOW 12,000 FEET WITH NO
       SIGNIFICANT WEATHER AND/OR OBSTRUCTIONS TO VISIBILITY.

  * THESE STATIONS DO NOT REPORT WEATHER SUCH AS RAIN...SNOW OR FOG.

NEZ001>004-019>022-054>056-111000-
NEBRASKA PANHANDLE

CITY           SKY/WX    TMP DP  RH WIND       PRES   REMARKS
SCOTTSBLUFF    CLOUDY    32  22  66 NW7       29.79R WCI  26
ALLIANCE       CLOUDY    21  15  78 W6        29.76R WCI  13
CHADRON        CLOUDY    11   6  81 NE5       29.83R WCI   3
KIMBALL        CLOUDY    34  27  77 NW13      29.77R WCI  25
SIDNEY         CLOUDY    34  23  64 N21       29.76R WCI  22
$$

NEZ057>060-069>072-079>082-111000-
SOUTHWEST NEBRASKA

CITY           SKY/WX    TMP DP  RH WIND       PRES   REMARKS
NORTH PLATTE   CLOUDY    26  23  88 NW6       29.71R WCI  19
IMPERIAL       CLOUDY    37  28  70 N23       29.68R WCI  26
LEXINGTON      CLOUDY    21  19  91 NW5       29.70R WCI  15
MCCOOK         CLOUDY    19  16  88 NW8       29.69R WCI   9
OGALLALA       CLOUDY    28  21  74 N16G29    29.73R WCI  16
$$

NEZ005>010-023>029-035>040-094-111000-
NORTH CENTRAL NEBRASKA

CITY           SKY/WX    TMP DP  RH WIND       PRES   REMARKS
VALENTINE      LGT SNOW  12   8  84 NW15      29.82R FOG     WCI  -4
AINSWORTH      CLOUDY    16  15  97 NW17G26   29.78R FOG     WCI   0
BROKEN BOW     PTCLDY    30  25  81 NW13      29.69R WCI  20
O`NEILL        CLOUDY    18  16  94 NE5       29.72S WCI  11
ORD            CLOUDY    19  15  84 N3        29.71R
THEDFORD       CLOUDY    16  12  84 NW15G21   29.78R WCI   1
$$

NEZ041-046>049-061>064-073>077-083>087-111000-
SOUTH CENTRAL NEBRASKA

CITY           SKY/WX    TMP DP  RH WIND       PRES   REMARKS
GRAND ISLAND   CLOUDY    25  22  88 S8        29.69F WCI  16
AURORA         CLOUDY    26  21  82 S7        29.70F WCI  18
HASTINGS       CLOUDY    26  22  84 SE8       29.69F WCI  18
HEBRON         CLOUDY    26  22  85 CALM      29.73S
HOLDREGE       CLOUDY    23  21  91 CALM      29.68R
KEARNEY *      CLOUDY    23  19  86 CALM      29.69S
YORK           CLOUDY    27  21  80 S9        29.71F WCI  17
$$

NEZ011>018-030>034-042>045-111000-
NORTHEAST NEBRASKA

CITY           SKY/WX    TMP DP  RH WIND       PRES   REMARKS
NORFOLK        CLEAR     22  17  81 CALM      29.75R
ALBION         CLOUDY    22  18  87 CALM      29.73R
BLAIR          CLOUDY    28  21  75 E7        29.77F WCI  20
FREMONT        CLOUDY    29  22  75 E8        29.76F WCI  21
TEKAMAH        PTCLDY    27  20  75 SE10      29.79F WCI  17
WAYNE          CLOUDY    25  21  85 E6        29.77R WCI  18
$$

NEZ050>053-065>068-078-088>093-111000-
SOUTHEAST NEBRASKA

CITY           SKY/WX    TMP DP  RH WIND       PRES   REMARKS
LINCOLN        CLOUDY    29  21  72 SE5       29.77F WCI  24
OMAHA EPPLEY   CLOUDY    30  19  63 SE9       29.81S WCI  22
BEATRICE       CLOUDY    31  24  73 SE6       29.75F WCI  26
FALLS CITY     CLOUDY    36  24  62 SE10      29.80F WCI  28
NEBRASKA CITY  CLOUDY    31  18  60 SE6       29.79F WCI  25
PLATTSMOUTH    CLOUDY    32  19  58 SE12      29.78F WCI  23
$$

NEZ044-045-051>053-067-111000-
OMAHA AREA

CITY           SKY/WX    TMP DP  RH WIND       PRES   REMARKS
OMAHA EPPLEY   CLOUDY    30  19  63 SE9       29.81S WCI  22
BLAIR          CLOUDY    28  21  75 E7        29.77F WCI  20
FREMONT        CLOUDY    29  22  75 E8        29.76F WCI  21
MILLARD        CLOUDY    32  22  67 CALM      29.80S
OFFUTT AFB     CLOUDY    32  21  65 E8        29.80S WCI  25
PLATTSMOUTH    CLOUDY    32  19  58 SE12      29.78F WCI  23
WAHOO          FAIR      26  19  77 SE8       29.77F WCI  17
$$



USA.gov is the U.S. government's official web portal to all federal, state and local government web resources and services.